AFL6295 USTR-UWKD

Flight info

Callsign AFL6295
Flight time N/A
Altitude 36000
Route BEPAR1S BEPAR T448 BANAM T348 EKB M864 AGNOK T796 ORTIM ORTIM1T
Aircraft A320/M-SDE3FGHIRWY/LB1

Departure

Time 2026-04-19 22:14
Airport Roshchino International Airport (USTR)

Arrival

Time N/A
Airport Kazan International Airport (UWKD)
Time Latitude Longitude Altitude Speed Heading
2026-04-19 21:46 57.18106 65.34752 337 ft 0 kts 46°
2026-04-19 21:59 57.18097 65.34731 335 ft 2 kts 53°
2026-04-19 22:00 57.18089 65.34705 340 ft 2 kts 80°
2026-04-19 22:00 57.18088 65.34675 336 ft 2 kts 106°
2026-04-19 22:00 57.18091 65.34658 339 ft 0 kts 116°
2026-04-19 22:01 57.18093 65.34650 338 ft 2 kts 114°
2026-04-19 22:01 57.18100 65.34621 337 ft 2 kts 80°
2026-04-19 22:01 57.18089 65.34602 336 ft 2 kts
2026-04-19 22:01 57.18073 65.34609 337 ft 2 kts 319°
2026-04-19 22:02 57.18066 65.34622 339 ft 0 kts 315°
2026-04-19 22:07 57.18093 65.34573 339 ft 10 kts 315°
2026-04-19 22:07 57.18167 65.34434 339 ft 20 kts 315°
2026-04-19 22:08 57.18286 65.34213 337 ft 28 kts 315°
2026-04-19 22:08 57.18443 65.33925 336 ft 33 kts 315°
2026-04-19 22:08 57.18607 65.33619 340 ft 34 kts 315°
2026-04-19 22:08 57.18731 65.33389 337 ft 21 kts 313°
2026-04-19 22:09 57.18836 65.33192 337 ft 22 kts 315°
2026-04-19 22:09 57.18948 65.32991 338 ft 23 kts 321°
2026-04-19 22:09 57.19060 65.32781 338 ft 20 kts 318°
2026-04-19 22:09 57.19092 65.32622 339 ft 9 kts 245°
2026-04-19 22:10 57.19056 65.32543 338 ft 0 kts 225°
2026-04-19 22:12 57.19055 65.32541 338 ft 2 kts 225°
2026-04-19 22:12 57.19001 65.32460 334 ft 18 kts 212°
2026-04-19 22:13 57.18905 65.32517 333 ft 15 kts 134°
2026-04-19 22:13 57.18789 65.32731 331 ft 50 kts 135°
2026-04-19 22:13 57.18375 65.33498 338 ft 115 kts 134°
2026-04-19 22:13 57.17692 65.34781 415 ft 158 kts 134°
2026-04-19 22:14 57.16894 65.36259 1056 ft 164 kts 136°
2026-04-19 22:14 57.15917 65.37305 1704 ft 172 kts 176°
2026-04-19 22:14 57.14616 65.37026 1798 ft 201 kts 198°
2026-04-19 22:14 57.13339 65.35573 1845 ft 244 kts 227°
2026-04-19 22:15 57.12619 65.32767 2798 ft 245 kts 259°
2026-04-19 22:15 57.12706 65.29632 3810 ft 248 kts 278°
2026-04-19 22:15 57.13064 65.26521 4752 ft 250 kts 279°
2026-04-19 22:15 57.13430 65.23375 5635 ft 253 kts 279°
2026-04-19 22:16 57.13800 65.20187 6482 ft 257 kts 279°
2026-04-19 22:16 57.14182 65.16841 6884 ft 279 kts 278°
2026-04-19 22:16 57.14419 65.13159 7169 ft 301 kts 271°
2026-04-19 22:16 57.14480 65.09178 7457 ft 322 kts 269°
2026-04-19 22:17 57.14463 65.04947 7893 ft 335 kts 268°
2026-04-19 22:17 57.14430 65.00625 8576 ft 340 kts 268°
2026-04-19 22:17 57.14410 64.96243 9331 ft 344 kts 268°
2026-04-19 22:17 57.14411 64.91813 10052 ft 348 kts 269°
2026-04-19 22:18 57.14429 64.87336 10695 ft 353 kts 269°
2026-04-19 22:18 57.14457 64.82749 11204 ft 361 kts 269°
2026-04-19 22:18 57.14491 64.78106 11852 ft 364 kts 269°
2026-04-19 22:18 57.14523 64.73442 12537 ft 365 kts 269°
2026-04-19 22:19 57.14554 64.68764 13196 ft 367 kts 269°
2026-04-19 22:19 57.14583 64.64054 13864 ft 368 kts 269°
2026-04-19 22:19 57.14605 64.59329 14416 ft 370 kts 269°
2026-04-19 22:19 57.14622 64.54575 14942 ft 373 kts 269°
2026-04-19 22:20 57.14639 64.49781 15460 ft 376 kts 269°
2026-04-19 22:20 57.14599 64.44952 15955 ft 379 kts 268°
2026-04-19 22:20 57.14478 64.40089 16450 ft 381 kts 266°
2026-04-19 22:20 57.14308 64.35201 16937 ft 384 kts 266°
2026-04-19 22:21 57.14120 64.30278 17408 ft 387 kts 266°
2026-04-19 22:21 57.13929 64.25308 17885 ft 390 kts 266°
2026-04-19 22:21 57.13748 64.20357 18675 ft 381 kts 266°
2026-04-19 22:21 57.13581 64.15537 19478 ft 375 kts 266°
2026-04-19 22:22 57.13419 64.10755 20070 ft 374 kts 266°
2026-04-19 22:22 57.13259 64.05979 20593 ft 374 kts 267°
2026-04-19 22:22 57.13099 64.01192 21074 ft 375 kts 267°
2026-04-19 22:22 57.12937 63.96393 21554 ft 376 kts 267°
2026-04-19 22:23 57.12771 63.91581 22024 ft 378 kts 267°
2026-04-19 22:23 57.12600 63.86751 22484 ft 379 kts 267°
2026-04-19 22:23 57.12425 63.81905 22932 ft 380 kts 267°
2026-04-19 22:23 57.12250 63.77042 23401 ft 381 kts 266°
2026-04-19 22:24 57.11836 63.72218 23780 ft 383 kts 259°
2026-04-19 22:24 57.11280 63.67415 24118 ft 384 kts 259°
2026-04-19 22:24 57.10720 63.62599 24465 ft 386 kts 259°
2026-04-19 22:24 57.10155 63.57760 24804 ft 388 kts 259°
2026-04-19 22:25 57.09590 63.52905 25125 ft 389 kts 259°
2026-04-19 22:25 57.09021 63.48031 25463 ft 391 kts 259°
2026-04-19 22:25 57.08447 63.43140 25777 ft 392 kts 259°
2026-04-19 22:25 57.07867 63.38242 26090 ft 393 kts 259°
2026-04-19 22:26 57.07478 63.34978 26295 ft 394 kts 259°
2026-04-19 22:26 57.06889 63.30051 26586 ft 396 kts 259°
2026-04-19 22:26 57.06296 63.25103 26885 ft 397 kts 259°
2026-04-19 22:26 57.05702 63.20141 27170 ft 398 kts 259°
2026-04-19 22:27 57.05105 63.15160 27446 ft 400 kts 259°
2026-04-19 22:27 57.04505 63.10161 27729 ft 401 kts 259°
2026-04-19 22:27 57.03900 63.05145 27969 ft 404 kts 259°
2026-04-19 22:27 57.03291 63.00109 28209 ft 405 kts 259°
2026-04-19 22:28 57.02674 62.95047 28476 ft 407 kts 259°
2026-04-19 22:28 57.02053 62.89977 28772 ft 407 kts 259°
2026-04-19 22:28 57.01432 62.84911 29146 ft 406 kts 259°
2026-04-19 22:28 57.00812 62.79870 29519 ft 404 kts 259°
2026-04-19 22:29 57.00192 62.74853 29897 ft 403 kts 259°
2026-04-19 22:29 56.99567 62.69842 30238 ft 402 kts 259°
2026-04-19 22:29 56.98942 62.64854 30559 ft 401 kts 259°
2026-04-19 22:29 56.98319 62.59889 30873 ft 399 kts 259°
2026-04-19 22:30 56.97699 62.54938 31193 ft 398 kts 259°
2026-04-19 22:30 56.97083 62.50005 31479 ft 397 kts 259°
2026-04-19 22:30 56.96465 62.45079 31755 ft 397 kts 259°
2026-04-19 22:30 56.95843 62.40158 32041 ft 396 kts 258°
2026-04-19 22:31 56.95219 62.35250 32339 ft 395 kts 258°
2026-04-19 22:31 56.94805 62.32006 32542 ft 394 kts 258°